Regional Weather Roundup
Issued by NWS

Home | Current Version | Previous Version | Text Only | Print | Product List | Glossary Off
Versions: 1 2 3 4 5 6 7 8 9 10 11 12 13 14 15 16 17 18 19 20 21 22 23 24 25 26 27 28 29 30 31 32 33 34 35 36 37 38 39 40 41 42 43 44 45 46 47 48 49 50

000
ASUS43 KFSD 020810
RWRSD

WEATHER ROUNDUP FOR SOUTH DAKOTA
NATIONAL WEATHER SERVICE SIOUX FALLS SD
300 AM CDT THU JUL 02 2015

NOTE: "FAIR" INDICATES FEW OR NO CLOUDS BELOW 12,000 FEET WITH NO
SIGNIFICANT WEATHER AND/OR OBSTRUCTIONS TO VISIBILITY.


SDZ001>005-009-010-012>017-020900-
NORTHWEST AND NORTH CENTRAL SOUTH DAKOTA

CITY           SKY/WX    TMP DP  RH WIND       PRES   REMARKS
BUFFALO          N/A     59  58  96 W10       29.98R
FAITH            N/A     64  60  87 S5        29.99F
MOBRIDGE       MOCLDY    68  68 100 SE5       29.92S
$$

SDZ012>016-024>037-041>051-057-063-072>074-020900-
SOUTHWEST AND SOUTH CENTRAL SOUTH DAKOTA

CITY           SKY/WX    TMP DP  RH WIND       PRES   REMARKS
RAPID CTY ARPT CLOUDY    63  61  93 SW6       30.03F
PIERRE         CLOUDY    68  66  93 S7        29.93S
CUSTER         CLOUDY    57  54  89 W3        30.18F
ELLSWORTH AFB  MOCLDY    64  63  98 W7        30.02F
PHILIP         CLOUDY    67  65  93 W3        29.97S
PINE RIDGE     LGT RAIN  64  61  90 SW14      30.07F
SPEARFISH      FAIR      61  57  88 N6        30.08S
WINNER         CLOUDY    69  63  81 SE3       29.97R
$$

SDZ004>011-016>023-039-040-020900-
NORTHEAST SOUTH DAKOTA

CITY           SKY/WX    TMP DP  RH WIND       PRES   REMARKS
ABERDEEN       CLOUDY    63  58  83 S6        29.96R
WATERTOWN      PTCLDY    59  53  80 SE6       29.98S
BROOKINGS      PTCLDY    59  52  77 SE9       30.00R
SISSETON         N/A     56  54  93 S5        29.96F
$$

SDZ017-020-022-023-036>040-048>070-020900-
SOUTHEAST SOUTH DAKOTA

CITY           SKY/WX    TMP DP  RH WIND       PRES   REMARKS
SIOUX FALLS    CLEAR     59  55  87 E6        29.98R
HURON          MOCLDY    62  58  86 SE8       29.95S
MITCHELL       PTCLDY    62  57  83 SE6       29.97R
YANKTON        PTCLDY    63  55  77 E7        29.95R
$$

ABBREVIATIONS USED IN REMARKS
   TC - TEMPERATURE IN CELSIUS
  WCI - WIND CHILL INDEX
   HX - HEAT INDEX
  VSB - VISIBILITY



USA.gov is the U.S. government's official web portal to all federal, state and local government web resources and services.